When you browse on this site, cookies collect data to enhance your experience and personalize the content and advertising you see.
Visit our Privacy Policy to learn more. By continuing to use the site, you agree to this use of cookies and data.
  • In Czech Republic
  • List of Countries
  • For 7 days
  • Water Temperature
  • Satellite Maps
  • Weather Map
  • Weather Widgets
  • user-avatar
    Login

    Hourly Weather Zvalnya

    Today, 24 May, Friday

    Time Temperature Precipitation Wind Pressure Humidity
    00:00 +18°C° 0 mm 1 mps 741 mmHg 78%
    01:00 +16°C° 0 mm 1 mps 741 mmHg 81%
    02:00 +15°C° 0 mm 0 mps 741 mmHg 80%
    03:00 +16°C° 0 mm 1 mps 742 mmHg 82%
    04:00 +16°C° 0 mm 1 mps 742 mmHg 83%
    05:00 +16°C° 0 mm 1 mps 742 mmHg 85%
    06:00 +19°C° 0.1 mm 1 mps 742 mmHg 79%
    07:00 +21°C° 0.1 mm 1 mps 742 mmHg 73%
    08:00 +23°C° 0 mm 1 mps 742 mmHg 66%
    09:00 +24°C° 1.2 mm 1 mps 742 mmHg 62%
    10:00 +25°C° 1.2 mm 1 mps 742 mmHg 58%
    11:00 +26°C° 1.2 mm 1 mps 742 mmHg 53%
    12:00 +26°C° 0 mm 1 mps 742 mmHg 50%
    13:00 +27°C° 0 mm 1 mps 742 mmHg 47%
    14:00 +28°C° 0 mm 1 mps 742 mmHg 44%
    15:00 +26°C° 0.4 mm 1 mps 742 mmHg 51%
    16:00 +25°C° 0.4 mm 1 mps 742 mmHg 59%
    17:00 +24°C° 0.4 mm 1 mps 741 mmHg 67%
    18:00 +23°C° 0.4 mm 1 mps 741 mmHg 72%
    19:00 +21°C° 0.4 mm 1 mps 741 mmHg 78%
    20:00 +20°C° 0.4 mm 1 mps 741 mmHg 83%
    21:00 +19°C° 0 mm 1 mps 741 mmHg 84%
    22:00 +18°C° 0 mm 1 mps 741 mmHg 86%
    23:00 +18°C° 0 mm 1 mps 741 mmHg 87%

    Tomorrow, 25 May, Saturday

    Time Temperature Precipitation Wind Pressure Humidity
    00:00 +16°C° 0 mm 1 mps 741 mmHg 89%
    01:00 +16°C° 0 mm 1 mps 741 mmHg 90%
    02:00 +15°C° 0 mm 1 mps 741 mmHg 92%
    03:00 +16°C° 0 mm 1 mps 741 mmHg 92%
    04:00 +16°C° 0 mm 1 mps 740 mmHg 92%
    05:00 +16°C° 0 mm 1 mps 740 mmHg 92%
    06:00 +18°C° 0.2 mm 1 mps 740 mmHg 87%
    07:00 +20°C° 0.2 mm 1 mps 740 mmHg 83%
    08:00 +20°C° 0.2 mm 2 mps 740 mmHg 78%
    09:00 +21°C° 0.8 mm 2 mps 740 mmHg 74%
    10:00 +22°C° 0.8 mm 3 mps 740 mmHg 69%
    11:00 +24°C° 0.8 mm 3 mps 740 mmHg 64%
    12:00 +24°C° 0.4 mm 3 mps 740 mmHg 62%
    13:00 +25°C° 0.4 mm 3 mps 740 mmHg 59%
    14:00 +25°C° 0.4 mm 3 mps 740 mmHg 57%
    15:00 +24°C° 0.7 mm 3 mps 740 mmHg 63%
    16:00 +22°C° 0.7 mm 3 mps 740 mmHg 68%
    17:00 +21°C° 0.7 mm 3 mps 739 mmHg 74%
    18:00 +20°C° 0 mm 3 mps 740 mmHg 77%
    19:00 +19°C° 0 mm 2 mps 740 mmHg 81%
    20:00 +17°C° 0 mm 2 mps 740 mmHg 85%
    21:00 +16°C° 0 mm 2 mps 740 mmHg 85%
    22:00 +15°C° 0 mm 2 mps 740 mmHg 86%
    23:00 +14°C° 0 mm 2 mps 740 mmHg 87%

    Day after tomorrow, 26 May, Sunday

    Time Temperature Precipitation Wind Pressure Humidity
    00:00 +13°C° 0 mm 2 mps 740 mmHg 90%
    01:00 +13°C° 0 mm 2 mps 741 mmHg 92%
    02:00 +12°C° 0 mm 2 mps 741 mmHg 95%
    03:00 +12°C° 0 mm 2 mps 741 mmHg 94%
    04:00 +12°C° 0 mm 2 mps 741 mmHg 94%
    05:00 +12°C° 0 mm 2 mps 741 mmHg 93%
    06:00 +13°C° 0 mm 2 mps 742 mmHg 84%
    07:00 +15°C° 0 mm 2 mps 742 mmHg 75%
    08:00 +16°C° 0 mm 2 mps 742 mmHg 67%
    09:00 +17°C° 0 mm 3 mps 742 mmHg 60%
    10:00 +18°C° 0 mm 3 mps 742 mmHg 53%
    11:00 +19°C° 0 mm 4 mps 742 mmHg 47%
    12:00 +20°C° 0 mm 4 mps 742 mmHg 46%
    13:00 +20°C° 0 mm 4 mps 742 mmHg 45%
    14:00 +21°C° 0 mm 5 mps 742 mmHg 45%
    15:00 +21°C° 0 mm 5 mps 742 mmHg 47%
    16:00 +20°C° 0 mm 5 mps 741 mmHg 50%
    17:00 +20°C° 0 mm 5 mps 741 mmHg 53%
    18:00 +18°C° 0 mm 4 mps 741 mmHg 60%
    19:00 +17°C° 0 mm 3 mps 741 mmHg 67%
    20:00 +15°C° 0 mm 2 mps 741 mmHg 74%
    21:00 +15°C° 0 mm 2 mps 741 mmHg 76%
    22:00 +14°C° 0 mm 2 mps 742 mmHg 78%
    23:00 +13°C° 0 mm 3 mps 742 mmHg 80%

    27 May, Monday

    Time Temperature Precipitation Wind Pressure Humidity
    00:00 +13°C° 0 mm 2 mps 742 mmHg 84%
    01:00 +12°C° 0 mm 2 mps 742 mmHg 88%
    02:00 +10°C° 0 mm 2 mps 742 mmHg 93%
    03:00 +10°C° 0 mm 2 mps 743 mmHg 93%
    04:00 +10°C° 0 mm 2 mps 743 mmHg 93%
    05:00 +10°C° 0 mm 2 mps 743 mmHg 93%
    06:00 +13°C° 0 mm 2 mps 744 mmHg 82%
    07:00 +15°C° 0 mm 2 mps 744 mmHg 71%
    08:00 +17°C° 0 mm 3 mps 744 mmHg 60%
    09:00 +18°C° 0 mm 3 mps 745 mmHg 57%
    10:00 +19°C° 0 mm 3 mps 745 mmHg 53%
    11:00 +21°C° 0 mm 4 mps 745 mmHg 50%
    12:00 +21°C° 0 mm 4 mps 745 mmHg 53%
    13:00 +20°C° 0 mm 3 mps 745 mmHg 56%
    14:00 +20°C° 0 mm 3 mps 744 mmHg 59%
    15:00 +21°C° 0 mm 3 mps 744 mmHg 56%
    16:00 +22°C° 0 mm 3 mps 744 mmHg 54%
    17:00 +24°C° 0 mm 3 mps 744 mmHg 51%
    18:00 +21°C° 0 mm 3 mps 744 mmHg 59%
    19:00 +20°C° 0 mm 2 mps 744 mmHg 66%
    20:00 +18°C° 0 mm 2 mps 744 mmHg 74%
    21:00 +17°C° 0 mm 2 mps 744 mmHg 76%
    22:00 +17°C° 0 mm 2 mps 744 mmHg 78%
    23:00 +16°C° 0 mm 2 mps 744 mmHg 80%

    28 May, Tuesday

    Time Temperature Precipitation Wind Pressure Humidity
    00:00 +16°C° 0 mm 2 mps 744 mmHg 84%
    01:00 +16°C° 0 mm 2 mps 744 mmHg 88%
    02:00 +15°C° 0 mm 2 mps 744 mmHg 92%
    03:00 +16°C° 0 mm 2 mps 744 mmHg 92%
    04:00 +16°C° 0 mm 2 mps 744 mmHg 92%
    05:00 +17°C° 0 mm 2 mps 744 mmHg 92%
    06:00 +18°C° 0 mm 2 mps 744 mmHg 86%
    07:00 +20°C° 0 mm 2 mps 745 mmHg 80%
    08:00 +23°C° 0 mm 2 mps 745 mmHg 74%
    09:00 +24°C° 0.4 mm 3 mps 745 mmHg 72%
    10:00 +25°C° 0.4 mm 3 mps 744 mmHg 70%
    11:00 +25°C° 0.4 mm 3 mps 744 mmHg 67%
    12:00 +26°C° 0.8 mm 4 mps 744 mmHg 67%
    13:00 +26°C° 0.8 mm 4 mps 744 mmHg 67%
    14:00 +26°C° 0.8 mm 4 mps 744 mmHg 67%
    15:00 +27°C° 0 mm 4 mps 743 mmHg 61%
    16:00 +27°C° 0 mm 5 mps 743 mmHg 55%
    17:00 +27°C° 0 mm 5 mps 743 mmHg 50%
    18:00 +26°C° 0 mm 5 mps 743 mmHg 56%
    19:00 +23°C° 0 mm 4 mps 743 mmHg 63%
    20:00 +22°C° 0 mm 4 mps 743 mmHg 70%
    21:00 +21°C° 0 mm 4 mps 743 mmHg 71%
    22:00 +21°C° 0 mm 4 mps 743 mmHg 72%
    23:00 +20°C° 0 mm 4 mps 743 mmHg 73%

    29 May, Wednesday

    Time Temperature Precipitation Wind Pressure Humidity
    00:00 +20°C° 0 mm 4 mps 743 mmHg 77%
    01:00 +19°C° 0 mm 4 mps 742 mmHg 82%
    02:00 +19°C° 0 mm 4 mps 742 mmHg 86%
    03:00 +19°C° 0 mm 4 mps 742 mmHg 83%
    04:00 +18°C° 0 mm 4 mps 742 mmHg 81%
    05:00 +17°C° 0 mm 5 mps 742 mmHg 78%
    06:00 +19°C° 0.2 mm 5 mps 742 mmHg 76%
    07:00 +19°C° 0.2 mm 5 mps 742 mmHg 73%
    08:00 +20°C° 0.2 mm 5 mps 742 mmHg 71%
    09:00 +22°C° 0.1 mm 5 mps 742 mmHg 68%
    10:00 +23°C° 0.1 mm 6 mps 742 mmHg 65%
    11:00 +24°C° 0.1 mm 6 mps 742 mmHg 62%
    12:00 +26°C° 0.3 mm 6 mps 742 mmHg 60%
    13:00 +27°C° 0.3 mm 5 mps 742 mmHg 59%
    14:00 +28°C° 0.3 mm 5 mps 742 mmHg 57%
    15:00 +27°C° 2 mm 4 mps 742 mmHg 64%
    16:00 +26°C° 2 mm 4 mps 742 mmHg 71%
    17:00 +25°C° 2 mm 3 mps 742 mmHg 77%
    18:00 +24°C° 0.6 mm 3 mps 742 mmHg 80%
    19:00 +23°C° 0.6 mm 2 mps 742 mmHg 84%
    20:00 +20°C° 0.6 mm 2 mps 742 mmHg 87%
    21:00 +20°C° 0 mm 2 mps 743 mmHg 89%
    22:00 +19°C° 0 mm 2 mps 743 mmHg 90%
    23:00 +18°C° 0 mm 2 mps 743 mmHg 92%
    Show more